This is the latest recevied weather packets stored in our database for station/object VA2EYZ-13. If no packets are shown the sender has not sent any weather packets the latest 10 day(s).
| Time | Temp. | Humidity | Pressure | Rain* | Wind** | Luminosity | Snow |
|---|---|---|---|---|---|---|---|
| 1788244443 | 15° C | 86% | 1017.9 hPa | - | - | - | - |
| 1788242605 | 15.56° C | 86% | 1018.1 hPa | - | - | - | - |
| 1788238398 | 15.56° C | 83% | 1018 hPa | - | - | - | - |
| 1788237807 | 15.56° C | 83% | 1018 hPa | - | - | - | - |
| 1788237436 | 15.56° C | 82% | 1017 hPa | - | - | - | - |
| 1788236964 | 15.56° C | 82% | 1018 hPa | - | - | - | - |
| 1788234214 | 15.56° C | 84% | 1017 hPa | - | - | - | - |
| 1788232981 | 15.56° C | 84% | 1017 hPa | - | - | - | - |
| 1788231313 | 16.67° C | 80% | 1017.8 hPa | - | - | - | - |
| 1788230940 | 16.67° C | 80% | 1017 hPa | - | - | - | - |
| 1788229801 | 16.67° C | 80% | 1017 hPa | - | - | - | - |
| 1788228070 | 17.22° C | 78% | 1017 hPa | - | - | - | - |
| 1788226670 | 17.22° C | 78% | 1018.2 hPa | - | - | - | - |
| 1788226114 | 17.78° C | 77% | 1018.2 hPa | - | - | - | - |
| 1788224694 | 18.33° C | 76% | 1018 hPa | - | - | - | - |
| 1788221439 | 18.89° C | 72% | 1017.8 hPa | - | - | - | - |
| 1788218587 | 20° C | 66% | 1017 hPa | - | - | - | - |
| 1788217492 | 21.67° C | 66% | 1017 hPa | - | - | - | - |
| 1788217186 | 21.67° C | 62% | 1017 hPa | - | - | - | - |
| 1788216376 | 22.22° C | 61% | 1017 hPa | - | - | - | - |
| 1788216022 | 22.22° C | 61% | 1018 hPa | - | - | - | - |
| 1788215566 | 22.78° C | 61% | 1018 hPa | - | - | - | - |
| 1788212545 | 23.89° C | 58% | 1018.3 hPa | - | - | - | - |
| 1788211702 | 23.89° C | 58% | 1018.4 hPa | - | - | - | - |
| 1788210774 | 23.89° C | 60% | 1018.4 hPa | - | - | - | - |
* Rain since midnight (hover to see other rain measurements)
** Current wind speed in m/s (hover to see current wind gust speed)